Frenchville, ME

5:50 PM EDT on October 17, 2017 (GMT -0400)
Northern Aroostook Regional

Weather History for KFVE - August, 2014

Change the Weather History Date:

Sunday, August 31, 2014

  Actual Average Record
Temperature  
Mean Temperature 62 °F 59 °F  
Max Temperature 68 °F 69 °F 89 °F (2010)
Min Temperature 56 °F 50 °F 34 °F (2002)
Degree Days  
Heating Degree Days 3    
Month to date heating degree days 87  
Since 1 July heating degree days 137  
Cooling Degree Days 0    
Month to date cooling degree days 30  
Year to date cooling degree days 130  
Growing Degree Days 12 (Base 50)    
Moisture  
Dew Point 62 °F    
Average Humidity 95    
Maximum Humidity 100    
Minimum Humidity 80    
Precipitation  
Precipitation 0.12 in 0.15 in 2.58 in (2005)
Month to date precipitation 1.96 4.00  
Year to date precipitation 22.79 22.06  
Sea Level Pressure  
Sea Level Pressure 29.87 in    
Wind  
Wind Speed 6 mph (SSW)    
Max Wind Speed 13 mph    
Max Gust Speed 16 mph    
Visibility 6 miles    
Events Rain    
T = Trace of Precipitation, MM = Missing Value Source: NWS Daily Summary

Daily Weather History Graph

Daily Weather History Graph

Search for Another Location

Airport or City:

Trip Planner

Search our weather history database for the weather conditions in past years. The results will help you decide how hot, cold, wet, or windy it might be!

Date:

Astronomy

Aug. 31, 2014 Rise Set
Actual Time 5:50 AM EDT 7:15 PM EDT
Civil Twilight 5:19 AM EDT 7:46 PM EDT
Nautical Twilight 4:40 AM EDT 8:25 PM EDT
Astronomical Twilight 3:58 AM EDT 9:06 PM EDT
Moon 11:58 AM EDT (8/31) 10:02 PM EDT (8/31)
Length of Visible Light 14h 27m
Length of Day
13h 24m
Waxing Crescent, 32% of the Moon is Illuminated
Aug 31
Waxing Crescent
Sep 2
First Quarter
Sep 8
Full
Sep 15
Last Quarter
Sep 24
New

Hourly Weather History & Observations

Time (EDT) Temp. Dew Point Humidity Pressure Visibility Wind Dir Wind Speed Gust Speed Precip Events Conditions
12:53 AM 62.1 °F 55.9 °F 80% 29.94 in 10.0 mi South 8.1 mph - N/A   Mostly Cloudy
1:53 AM 61.0 °F 55.9 °F 83% 29.94 in 10.0 mi SSE 6.9 mph - N/A   Mostly Cloudy
2:53 AM 61.0 °F 57.0 °F 87% 29.93 in 10.0 mi South 9.2 mph - N/A   Overcast
3:53 AM 60.1 °F 55.9 °F 86% 29.91 in 10.0 mi South 8.1 mph - N/A   Mostly Cloudy
4:53 AM 59.0 °F 55.9 °F 90% 29.91 in 10.0 mi South 9.2 mph - N/A   Scattered Clouds
5:53 AM 57.0 °F 55.9 °F 96% 29.90 in 8.0 mi SSE 10.4 mph - 0.06 in Rain Light Rain
6:12 AM 57.0 °F 55.9 °F 96% 29.91 in 9.0 mi South 9.2 mph - 0.02 in Rain Light Rain
6:27 AM 57.0 °F 55.9 °F 96% 29.92 in 10.0 mi South 9.2 mph - 0.03 in Rain Light Rain
6:36 AM 57.0 °F 55.9 °F 96% 29.92 in 10.0 mi South 10.4 mph - 0.03 in Rain Light Rain
6:53 AM 57.0 °F 55.9 °F 96% 29.92 in 10.0 mi South 9.2 mph - 0.03 in Rain Light Rain
7:53 AM 55.9 °F 55.9 °F 100% 29.91 in 3.0 mi South 6.9 mph - 0.01 in Rain Light Rain
8:53 AM 57.0 °F 55.9 °F 96% 29.89 in 4.0 mi SSE 8.1 mph - 0.00 in   Overcast
9:53 AM 57.9 °F 57.0 °F 97% 29.88 in 4.0 mi South 6.9 mph - N/A   Overcast
10:25 AM 59.0 °F 57.9 °F 96% 29.88 in 1.8 mi SSE 6.9 mph - N/A   Overcast
10:29 AM 59.0 °F 57.9 °F 96% 29.88 in 1.2 mi SSE 8.1 mph - N/A   Overcast
10:37 AM 59.0 °F 57.9 °F 96% 29.88 in 1.8 mi SSE 6.9 mph - N/A   Overcast
10:44 AM 59.0 °F 57.9 °F 96% 29.88 in 2.5 mi South 6.9 mph - N/A   Overcast
10:53 AM 59.0 °F 57.9 °F 96% 29.87 in 1.0 mi South 8.1 mph - N/A   Mist
11:04 AM 60.1 °F 59.0 °F 96% 29.88 in 1.8 mi SSE 6.9 mph - N/A   Overcast
11:09 AM 60.1 °F 59.0 °F 96% 29.88 in 3.0 mi SSE 6.9 mph - N/A   Overcast
11:53 AM 61.0 °F 61.0 °F 100% 29.86 in 8.0 mi South 3.5 mph - N/A   Overcast
12:53 PM 64.0 °F 62.1 °F 93% 29.84 in 10.0 mi SSW 5.8 mph - 0.00 in   Overcast
1:24 PM 64.9 °F 64.0 °F 97% 29.85 in 10.0 mi SW 6.9 mph - N/A   Overcast
1:53 PM 66.0 °F 64.0 °F 93% 29.83 in 10.0 mi SSW 8.1 mph - N/A   Overcast
2:53 PM 66.0 °F 64.0 °F 93% 29.83 in 6.0 mi South 8.1 mph - N/A   Overcast
3:26 PM 66.0 °F 64.0 °F 93% 29.83 in 6.0 mi South 5.8 mph - N/A   Overcast
3:53 PM 66.0 °F 64.9 °F 96% 29.82 in 6.0 mi South 4.6 mph - 0.00 in Rain Light Rain
4:04 PM 66.0 °F 64.9 °F 96% 29.82 in 6.0 mi South 5.8 mph - 0.00 in   Overcast
4:23 PM 66.0 °F 64.9 °F 96% 29.82 in 6.0 mi SSW 6.9 mph - 0.00 in   Overcast
4:53 PM 66.9 °F 64.9 °F 93% 29.82 in 7.0 mi South 4.6 mph - 0.00 in   Overcast
5:53 PM 66.9 °F 66.0 °F 97% 29.82 in 5.0 mi South 3.5 mph - 0.01 in   Overcast
6:04 PM 66.9 °F 66.0 °F 97% 29.83 in 4.0 mi South 3.5 mph - N/A   Overcast
6:14 PM 66.9 °F 66.0 °F 97% 29.83 in 3.0 mi South 3.5 mph - N/A   Overcast
6:26 PM 66.9 °F 66.0 °F 97% 29.83 in 3.0 mi South 4.6 mph - N/A   Overcast
6:35 PM 66.9 °F 66.0 °F 97% 29.83 in 5.0 mi SW 5.8 mph - N/A   Overcast
6:53 PM 68.0 °F 66.0 °F 93% 29.83 in 10.0 mi SW 4.6 mph - N/A   Overcast
7:20 PM 66.9 °F 66.0 °F 97% 29.84 in 10.0 mi WSW 4.6 mph - 0.00 in Rain Light Rain
7:31 PM 66.9 °F 66.0 °F 97% 29.84 in 10.0 mi WSW 4.6 mph - 0.00 in Rain Light Rain
7:53 PM 66.9 °F 66.0 °F 97% 29.83 in 9.0 mi SW 4.6 mph - 0.00 in Rain Light Rain
8:53 PM 66.9 °F 66.0 °F 97% 29.85 in 7.0 mi SW 4.6 mph - 0.00 in   Overcast
9:32 PM 66.9 °F 64.9 °F 93% 29.86 in 2.0 mi NNW 4.6 mph - N/A   Overcast
9:35 PM 66.0 °F 64.9 °F 96% 29.86 in 0.8 mi WNW 3.5 mph - N/A   Overcast
9:42 PM 66.9 °F 66.0 °F 97% 29.86 in 1.0 mi WNW 6.9 mph - N/A   Mostly Cloudy
9:45 PM 66.9 °F 66.0 °F 97% 29.86 in 3.0 mi West 8.1 mph - N/A   Overcast
9:53 PM 66.2 °F 66.2 °F 100% 29.86 in 7.0 mi North 5.8 mph - N/A   Overcast
9:55 PM 66.9 °F 64.9 °F 93% 29.86 in 7.0 mi North 5.8 mph - N/A   Overcast
10:15 PM 64.9 °F 64.0 °F 97% 29.85 in 9.0 mi North 6.9 mph - 0.00 in   Mostly Cloudy
10:53 PM 64.9 °F 64.0 °F 97% 29.85 in 10.0 mi North 5.8 mph - 0.01 in   Overcast
11:53 PM 64.9 °F 64.0 °F 97% 29.86 in 2.0 mi NNW 4.6 mph - N/A   Overcast
11:55 PM 64.4 °F 64.4 °F 100% 29.87 in 1.5 mi NNW 4.6 mph - N/A   Overcast